This demonstration page uses our WeatherBlox Daily Observations layout. Learn more.

Left ArrowRight Arrow

Hourly Observations for October 16, 2021

Temp ( °F °C ) Dew Point ( °F °C ) Humidity (%) Winds ( mph kmh ) Pressure ( in mb ) Visibility ( mi km ) Precip ( " mm )
12:53 am 00:53 Clear 38 3.3 28 -2.2 68 68 W 7 11 30.25 1024 10 16 0.00 0.00
1:53 am 01:53 Clear 39 3.9 28 -2.2 65 65 W 8 13 30.26 1025 10 16 0.00 0.00
2:53 am 02:53 Clear 36 2.2 28 -2.2 73 73 undefined N/A 30.26 1025 10 16 0.00 0.00
3:53 am 03:53 Clear 35 1.7 28 -2.2 76 76 W 8 13 30.26 1025 10 16 0.00 0.00
4:53 am 04:53 Clear 34 1.1 28 -2.2 79 79 WNW 6 9 30.27 1025 10 16 0.00 0.00
5:53 am 05:53 Clear 34 1.1 28 -2.2 79 79 W 7 11 30.29 1026 10 16 0.00 0.00
6:53 am 06:53 Clear 34 1.1 27 -2.8 76 76 WSW 8 13 30.31 1026 10 16 0.00 0.00
7:53 am 07:53 Sunny 34 1.1 27 -2.8 76 76 W 6 9 30.33 1027 10 16 0.00 0.00
8:53 am 08:53 Sunny 41 5 28 -2.2 60 60 W 9 15 30.34 1027 10 16 0.00 0.00
9:53 am 09:53 Sunny 48 8.9 29 -1.7 48 48 W 9 15 30.33 1027 10 16 0.00 0.00
10:53 am 10:53 Sunny 53 11.7 29 -1.7 40 40 W 7 11 30.32 1027 10 16 0.00 0.00
11:53 am 11:53 Sunny 59 15 26 -3.3 28 28 W 10 17 30.30 1026 10 16 0.00 0.00
12:53 pm 12:53 Sunny 61 16.1 27 -2.8 27 27 WNW 10 17 30.29 1026 10 16 0.00 0.00
1:53 pm 13:53 Sunny 63 17.2 30 -1.1 29 29 NNW 14 22 30.27 1025 10 16 0.00 0.00
2:53 pm 14:53 Sunny 65 18.3 29 -1.7 26 26 NNW 13 20 30.25 1024 10 16 0.00 0.00
3:53 pm 15:53 Sunny 66 18.9 30 -1.1 26 26 N 12 19 30.24 1024 10 16 0.00 0.00
4:53 pm 16:53 Sunny 66 18.9 30 -1.1 26 26 NW 10 17 30.24 1024 10 16 0.00 0.00
5:53 pm 17:53 Sunny 66 18.9 30 -1.1 26 26 Calm 30.24 1024 10 16 0.00 0.00
6:53 pm 18:53 Clear 59 15 34 1.1 39 39 Calm 30.25 1024 10 16 0.00 0.00
7:53 pm 19:53 Clear 51 10.6 34 1.1 52 52 Calm 30.27 1025 10 16 0.00 0.00
8:53 pm 20:53 Clear 49 9.4 36 2.2 61 61 Calm 30.26 1025 10 16 0.00 0.00
9:53 pm 21:53 Clear 47 8.3 35 1.7 63 63 Calm 30.26 1025 10 16 0.00 0.00
10:53 pm 22:53 Clear 45 7.2 35 1.7 68 68 Calm 30.26 1025 10 16 0.00 0.00
11:53 pm 23:53 Clear 45 7.2 34 1.1 66 66 Calm 30.24 1024 10 16 0.00 0.00

Powered by AerisWeather